Погода в Старопохвистневе

Россия / Самарская область     53°41′03″N   52°07′33″E
темп.,
°C
ветер,
м/с
пор.,
м/с
влажн.,
%
обл.,
%
осадки,
мм/ч
давл.,
гПа
погр.,
м
21 января, чт
чт2101:00−24юз2310097 0.0 102028
04:00−24юз2310098 0.1 102034
07:00−25юз2310096 0.0 102034
10:00−22юз359998 0.1 1021170
13:00−18юз4696100 0.3 1021258
16:00−17юз4896100 0.3 1020272
19:00−16юз4996100 0.1 1020264
22:00−15юз4996100 0.3 1019249
22 января, пт
пт2201:00−13юз41095100 0.3 1018278
04:00−12юз5995100 0.5 1017330
07:00−12юз499598 0.3 1017322
10:00−13зюз479696 0.3 1018251
13:00−12зюз3594100 0.1 1019283
16:00−13зюз3496100 0.1 1019125
19:00−18з129892 0.0 102120
22:00−19ссз1110090 0.1 102320
23 января, сб
сб2301:00−21всв1110046 0.0 102520
04:00−21вюв1110067 0.0 102620
07:00−18вюв239799 0.0 1027117
10:00−16юв3695100 0.1 1027259
13:00−13ююв5995100 0.7 1027365
16:00−11ююв5995100 1.5 1025402
19:00−11ююв5995100 0.8 1025348
22:00−9ю4995100 1.5 1023279
24 января, вс
вс2401:00−6ю4796100 0.4 1023247
04:00−3ююв3498100 1.0 1022144
07:00+1зюз4999100 0.7 1022286
10:00+1юз3799100 0.8 1024189
13:00+1юз48100100 0.1 1024219
16:00+1юз4999100 0.1 1025287
19:000юз51097100 0.0 1027318
22:00−2юз5119499 0.0 1028304
25 января, пн
пн2501:00−3юз41096100 0.1 1029295
04:00−3юз41097100 0.1 1030302
07:00−4ююз3897100 0.0 1030271
10:00−3ююз4798100 0.0 1031347
13:00−1ююз4796100 0.0 1031495
16:000ю4792100 0.1 1031486
19:00−3ю4895100 0.0 1030303
22:00−2ююв4995100 0.0 1030517